Date String (YYYY-MM-DD hh:mm:ss) UTC,Instrument flags,absolute air pressure of the measurement (hPa),sample flow rate (lpm),inlet stack bypass flow (lpm),air temperature of the measurement (°C),ambient temperature measured by the external sensor (°C),aerosol sample conditioner tube jacket temperature (°C),OPC LED temperature (°C),internal box temperature (°C),relative humidity of the measurement (%),span deviation,mass concentration of particles derived from Lorenz-Mie calculation of OPC scattering (μg/m³),mass concentration of particles derived from Lorenz-Mie calculation of OPC scattering (μg/m³),mass concentration of particles derived from Lorenz-Mie calculation of OPC scattering (μg/m³)
DateTimeUTC,F1_M11,P_M11,Q1_M11,Q2_M11,T1_M11,T2_M11,T3_M11,T4_M11,T5_M11,U1_M11,ZSPAN_M11,X2_M11,X0_M11,X1_M11
2023-09-20 05:00:00,SystemResetWarning,0829.3,5.00,000.00,028.2,026.6,000.0,036.5,029.8,17.6,0000.0,0001.70,0002.30,0001.44
2023-09-20 05:01:00,SystemResetWarning,0829.3,5.01,000.00,028.2,026.7,000.0,036.5,029.8,17.4,0000.0,0001.73,0002.33,0001.47
2023-09-20 05:02:00,SystemResetWarning,0829.4,5.00,000.00,028.2,026.7,000.0,036.5,029.8,17.5,0000.0,0001.73,0002.32,0001.48
2023-09-20 05:03:00,SystemResetWarning,0829.4,4.99,000.00,028.2,026.8,000.0,036.5,029.9,17.7,0000.0,0001.73,0002.62,0001.48
2023-09-20 05:04:00,SystemResetWarning,0829.4,4.99,000.00,028.2,026.8,000.0,036.5,029.9,17.8,0000.0,0001.78,0002.81,0001.49
2023-09-20 05:05:00,SystemResetWarning,0829.4,5.00,000.00,028.2,026.9,000.0,036.5,029.9,18.2,0000.0,0001.81,0002.89,0001.49
2023-09-20 05:06:00,SystemResetWarning,0829.3,5.01,000.00,028.2,026.9,000.0,036.6,029.9,18.3,0000.0,0001.80,0002.90,0001.48
2023-09-20 05:07:00,SystemResetWarning,0829.3,5.01,000.00,028.3,026.9,000.0,036.6,029.9,18.0,0000.0,0001.82,0002.94,0001.48
2023-09-20 05:08:00,SystemResetWarning,0829.4,4.99,000.00,028.3,026.9,000.0,036.6,029.9,17.6,0000.0,0001.82,0002.96,0001.48
2023-09-20 05:09:00,SystemResetWarning,0829.3,4.99,000.00,028.3,026.9,000.0,036.6,029.9,17.4,0000.0,0001.85,0003.06,0001.48
2023-09-20 05:10:00,SystemResetWarning,0829.4,5.01,000.00,028.3,026.9,000.0,036.6,030.0,17.3,0000.0,0001.88,0003.17,0001.48
2023-09-20 05:11:00,SystemResetWarning,0829.4,5.00,000.00,028.3,027.0,000.0,036.6,030.0,17.4,0000.0,0001.88,0003.09,0001.49
2023-09-20 05:12:00,SystemResetWarning,0829.4,5.00,000.00,028.3,027.0,000.0,036.6,030.0,17.3,0000.0,0001.90,0003.19,0001.49
2023-09-20 05:13:00,SystemResetWarning,0829.4,5.00,000.00,028.4,027.0,000.0,036.6,030.0,17.2,0000.0,0001.90,0003.20,0001.48
2023-09-20 05:14:00,SystemResetWarning,0829.4,4.98,000.00,028.4,027.0,000.0,036.7,030.0,17.1,0000.0,0001.89,0002.86,0001.49
2023-09-20 05:15:00,SystemResetWarning,0829.4,5.00,000.00,028.4,027.0,000.0,036.7,030.0,17.1,0000.0,0001.84,0002.69,0001.48
2023-09-20 05:16:00,SystemResetWarning,0829.4,5.00,000.00,028.4,027.0,000.0,036.7,030.0,16.8,0000.0,0001.79,0002.57,0001.47
2023-09-20 05:17:00,SystemResetWarning,0829.3,5.01,000.00,028.4,027.0,000.0,036.7,030.0,16.5,0000.0,0001.80,0002.62,0001.46
2023-09-20 05:18:00,SystemResetWarning,0829.3,5.00,000.00,028.4,027.0,000.0,036.7,030.0,16.4,0000.0,0001.81,0003.28,0001.47
2023-09-20 05:19:00,SystemResetWarning,0829.3,4.98,000.00,028.4,027.0,000.0,036.7,030.1,16.6,0000.0,0001.80,0004.02,0001.47
2023-09-20 05:20:00,SystemResetWarning,0829.3,5.00,000.00,028.4,027.1,000.0,036.7,030.1,16.8,0000.0,0001.77,0004.33,0001.46
2023-09-20 05:21:00,SystemResetWarning,0829.3,5.00,000.00,028.4,027.1,000.0,036.7,030.1,16.5,0000.0,0001.75,0004.71,0001.47
2023-09-20 05:22:00,SystemResetWarning,0829.2,5.00,000.00,028.5,027.1,000.0,036.7,030.1,16.5,0000.0,0001.78,0004.89,0001.47
2023-09-20 05:23:00,SystemResetWarning,0829.2,5.00,000.00,028.5,027.1,000.0,036.8,030.1,16.6,0000.0,0001.80,0004.92,0001.47
2023-09-20 05:24:00,SystemResetWarning,0829.2,5.00,000.00,028.5,027.1,000.0,036.8,030.1,16.6,0000.0,0001.81,0004.95,0001.46
2023-09-20 05:25:00,SystemResetWarning,0829.3,5.01,000.00,028.5,027.1,000.0,036.8,030.1,16.5,0000.0,0001.81,0005.01,0001.45
2023-09-20 05:26:00,SystemResetWarning,0829.2,5.00,000.00,028.5,027.1,000.0,036.8,030.1,16.4,0000.0,0001.80,0004.99,0001.44
2023-09-20 05:27:00,SystemResetWarning,0829.2,5.00,000.00,028.5,027.1,000.0,036.8,030.1,16.4,0000.0,0001.82,0005.07,0001.43
2023-09-20 05:28:00,SystemResetWarning,0829.2,5.01,000.00,028.5,027.1,000.0,036.8,030.2,16.4,0000.0,0001.81,0005.04,0001.43
2023-09-20 05:29:00,SystemResetWarning,0829.2,5.00,000.00,028.5,027.2,000.0,036.8,030.2,16.4,0000.0,0001.82,0004.66,0001.42
2023-09-20 05:30:00,SystemResetWarning,0829.2,4.99,000.00,028.5,027.2,000.0,036.8,030.2,16.4,0000.0,0001.84,0003.74,0001.40
2023-09-20 05:31:00,SystemResetWarning,0829.2,5.00,000.00,028.6,027.2,000.0,036.8,030.2,16.3,0000.0,0001.86,0003.54,0001.40
2023-09-20 05:32:00,SystemResetWarning,0829.2,5.01,000.00,028.6,027.2,000.0,036.9,030.2,16.4,0000.0,0001.89,0003.00,0001.39
2023-09-20 05:33:00,SystemResetWarning,0829.1,5.01,000.00,028.6,027.2,000.0,036.9,030.2,16.4,0000.0,0001.84,0002.82,0001.37
2023-09-20 05:34:00,SystemResetWarning,0829.2,5.00,000.00,028.6,027.2,000.0,036.9,030.2,16.4,0000.0,0001.80,0002.69,0001.37
2023-09-20 05:35:00,SystemResetWarning,0829.2,5.00,000.00,028.6,027.2,000.0,036.9,030.2,17.0,0000.0,0001.77,0002.64,0001.36
2023-09-20 05:36:00,SystemResetWarning,0829.2,5.00,000.00,028.6,027.2,000.0,036.9,030.2,16.9,0000.0,0001.81,0002.68,0001.37
2023-09-20 05:37:00,SystemResetWarning,0829.2,5.00,000.00,028.6,027.2,000.0,036.9,030.2,16.7,0000.0,0001.83,0003.11,0001.38
2023-09-20 05:38:00,SystemResetWarning,0829.2,5.00,000.00,028.6,027.2,000.0,036.9,030.2,16.6,0000.0,0001.84,0003.89,0001.39
2023-09-20 05:39:00,SystemResetWarning,0829.2,5.00,000.00,028.6,027.2,000.0,036.9,030.2,16.7,0000.0,0001.84,0003.86,0001.39
2023-09-20 05:40:00,SystemResetWarning,0829.2,5.00,000.00,028.6,027.2,000.0,036.9,030.3,16.9,0000.0,0001.82,0003.78,0001.39
2023-09-20 05:41:00,SystemResetWarning,0829.2,5.00,000.00,028.6,027.2,000.0,036.9,030.3,16.7,0000.0,0001.80,0003.69,0001.40
2023-09-20 05:42:00,SystemResetWarning,0829.2,5.01,000.00,028.6,027.2,000.0,036.9,030.3,16.5,0000.0,0001.77,0004.33,0001.40
2023-09-20 05:43:00,SystemResetWarning,0829.2,5.00,000.00,028.7,027.2,000.0,036.9,030.3,16.5,0000.0,0001.75,0004.30,0001.40
2023-09-20 05:44:00,SystemResetWarning,0829.2,5.00,000.00,028.7,027.2,000.0,037.0,030.3,16.5,0000.0,0001.75,0004.28,0001.40
2023-09-20 05:45:00,SystemResetWarning,0829.2,4.99,000.00,028.7,027.3,000.0,037.0,030.3,16.7,0000.0,0001.73,0004.24,0001.39
2023-09-20 05:46:00,SystemResetWarning,0829.2,5.00,000.00,028.7,027.3,000.0,037.0,030.3,16.7,0000.0,0001.74,0004.27,0001.39
2023-09-20 05:47:00,SystemResetWarning,0829.2,5.01,000.00,028.7,027.3,000.0,037.0,030.3,16.7,0000.0,0001.70,0004.20,0001.38
2023-09-20 05:48:00,SystemResetWarning,0829.2,5.00,000.00,028.7,027.3,000.0,037.0,030.3,16.8,0000.0,0001.68,0003.78,0001.38
2023-09-20 05:49:00,SystemResetWarning,0829.2,4.99,000.00,028.7,027.3,000.0,037.0,030.3,16.7,0000.0,0001.67,0002.94,0001.38
2023-09-20 05:50:00,SystemResetWarning,0829.2,5.00,000.00,028.7,027.3,000.0,037.0,030.3,16.6,0000.0,0001.69,0003.00,0001.37
2023-09-20 05:51:00,SystemResetWarning,0829.3,5.01,000.00,028.7,027.3,000.0,037.0,030.4,16.7,0000.0,0001.70,0003.14,0001.38
2023-09-20 05:52:00,SystemResetWarning,0829.3,5.01,000.00,028.7,027.3,000.0,037.0,030.4,16.8,0000.0,0001.69,0003.15,0001.38
2023-09-20 05:53:00,SystemResetWarning,0829.3,5.00,000.00,028.7,027.3,000.0,037.0,030.4,16.7,0000.0,0001.71,0002.62,0001.39
2023-09-20 05:54:00,SystemResetWarning,0829.4,4.99,000.00,028.8,027.3,000.0,037.1,030.4,16.8,0000.0,0001.69,0002.49,0001.38
2023-09-20 05:55:00,SystemResetWarning,0829.4,5.00,000.00,028.8,027.4,000.0,037.1,030.4,16.8,0000.0,0001.73,0002.64,0001.38
2023-09-20 05:56:00,SystemResetWarning,0829.4,5.01,000.00,028.8,027.4,000.0,037.1,030.4,16.6,0000.0,0001.77,0002.72,0001.38
2023-09-20 05:57:00,SystemResetWarning,0829.4,5.01,000.00,028.8,027.4,000.0,037.1,030.4,16.7,0000.0,0001.76,0002.68,0001.39
2023-09-20 05:58:00,SystemResetWarning,0829.4,4.99,000.00,028.8,027.4,000.0,037.1,030.4,17.0,0000.0,0001.77,0002.72,0001.39
2023-09-20 05:59:00,SystemResetWarning,0829.4,4.99,000.00,028.8,027.4,000.0,037.1,030.4,17.1,0000.0,0001.76,0002.70,0001.38
